This is the latest recevied weather packets stored in our database for station/object W8LMG. If no packets are shown the sender has not sent any weather packets the latest 10 day(s).
| Time | Temp. | Humidity | Pressure | Rain* | Wind** | Luminosity | Snow |
|---|---|---|---|---|---|---|---|
| 1777822250 | 8.89° C | 39% | 1019.2 hPa | 0 mm | - | 637 W/m² | - |
| 1777821948 | 8.33° C | 44% | 1019 hPa | 0 mm | - | 586 W/m² | - |
| 1777821646 | 8.33° C | 44% | 1019 hPa | 0 mm | - | 428 W/m² | - |
| 1777821344 | 7.78° C | 41% | 1019 hPa | 0 mm | - | 471 W/m² | - |
| 1777821040 | 7.78° C | 42% | 1019 hPa | 0 mm | - | 328 W/m² | - |
| 1777820737 | 7.78° C | 43% | 1019.1 hPa | 0 mm | - | 347 W/m² | - |
| 1777820433 | 7.78° C | 42% | 1019 hPa | 0 mm | - | 123 W/m² | - |
| 1777820131 | 7.78° C | 45% | 1019 hPa | 0 mm | - | 287 W/m² | - |
| 1777819827 | 7.78° C | 46% | 1019 hPa | 0 mm | - | 139 W/m² | - |
| 1777819525 | 7.22° C | 44% | 1019.3 hPa | 0 mm | - | 557 W/m² | - |
| 1777819223 | 7.22° C | 43% | 1019.1 hPa | 0 mm | - | 548 W/m² | - |
| 1777818919 | 7.78° C | 44% | 1019.1 hPa | 0 mm | - | 328 W/m² | - |
| 1777818615 | 7.22° C | 44% | 1019.1 hPa | 0 mm | - | 504 W/m² | - |
| 1777818313 | 7.22° C | 45% | 1019.1 hPa | 0 mm | - | 374 W/m² | - |
| 1777818009 | 7.78° C | 46% | 1019 hPa | 0 mm | - | 290 W/m² | - |
| 1777817706 | 6.67° C | 45% | 1019 hPa | 0 mm | - | 224 W/m² | - |
| 1777817403 | 6.67° C | 49% | 1018.9 hPa | 0 mm | - | 315 W/m² | - |
| 1777817099 | 6.67° C | 51% | 1018.9 hPa | 0 mm | - | 432 W/m² | - |
| 1777816796 | 6.67° C | 49% | 1019.1 hPa | 0 mm | - | 281 W/m² | - |
| 1777816494 | 6.11° C | 46% | 1018.9 hPa | 0 mm | - | 245 W/m² | - |
| 1777816191 | 6.67° C | 46% | 1018.9 hPa | 0 mm | - | 356 W/m² | - |
| 1777815889 | 6.11° C | 49% | 1018.7 hPa | 0 mm | - | 296 W/m² | - |
| 1777815586 | 5.56° C | 52% | 1018.9 hPa | 0 mm | - | 125 W/m² | - |
| 1777815283 | 5.56° C | 52% | 1018.9 hPa | 0 mm | - | 43 W/m² | - |
| 1777814979 | 6.11° C | 54% | 1018.8 hPa | 0 mm | - | 319 W/m² | - |
* Rain latest hour (hover to see other rain measurements)
** Current wind speed in m/s (hover to see current wind gust speed)